Location: Góry Miechowskie
(50.3599°N, 20.1803°E)
Time: 07:34:09
(UTC+00:00)

A-11 Canister half - Pass Details

Date: 21 September 2024
Orbit: 1524 x 1683 km, 47.3° (Epoch: 12 October)

Event Time Altitude Azimuth Distance (km) Brightness Sun altitude
Rises 18:51:30 0° 284° (WNW) 4,834 13.0 -21.1°
Reaches altitude 10° 18:56:58 10° 260° (W) 3,878 11.8 -21.9°
Maximum altitude 19:00:52 13° 236° (WSW) 3,654 11.3 -22.5°
Drops below altitude 10° 19:04:49 10° 212° (SSW) 3,911 11.1 -23.0°
Sets 19:10:28 0° 188° (S) 4,914 11.4 -23.8°
